Location: Hines Observatory
(31.5604°N, 83.5172°W)
Time: 20:01:37
(UTC-04:00)

Daily predictions for brighter satellites

Satellite Brightness Start Highest point End
(mag) Time Altitude Azimuth Time Altitude Azimuth Time Altitude Azimuth
Cosmos 2333 Rocket 4.3 19:39:29 10° SW 19:44:34 32° WNW 19:49:40 10° N
IDEFIX/ARIANE 42P 3.3 19:39:31 10° S 19:44:39 61° W 19:49:51 10° NNW
COSMO-SKYMED 1 2.9 19:42:48 10° N 19:47:08 73° WNW 19:51:27 10° SSW
Cosmos 192 4.4 19:43:30 10° S 19:48:20 58° ESE 19:53:13 10° NNE
Cosmos 1758 4.5 19:47:21 10° SE 19:50:36 23° E 19:53:53 10° NE
Aureole 2 Rocket 3.5 19:52:38 10° SSW 19:56:59 67° WNW 20:01:19 10° N
ISS -2.1 19:55:19 10° S 19:58:01 24° SE 20:00:33 11° ENE
OAO 3 Rocket 3.5 19:53:23 10° W 19:58:04 59° N 20:02:48 10° ENE
Cosmos 1484 Rocket 2.8 19:55:00 10° S 19:58:47 83° W 20:02:39 10° NNW
USA 215 3.3 19:52:43 10° NE 19:59:17 83° SE 20:05:48 10° SW
Cosmos 1624 Rocket 3.9 19:54:27 10° N 19:59:40 70° ENE 20:04:48 10° SSE
SAR-Lupe-1 4.3 19:56:20 10° SSE 19:59:45 48° ENE 20:03:12 10° N
SL-19 R/B 4.3 19:54:37 10° SSE 20:00:09 71° ENE 20:05:56 10° N
ASTRO E2 2.7 20:00:45 10° W 20:04:48 89° SSW 20:08:09 15° E
ASC 2 Rocket 4.3 20:02:11 10° WSW 20:06:10 29° S 20:09:35 11° SE
ALOS 3.7 20:04:00 11° ESE 20:06:38 17° ENE 20:09:39 10° NNE
Cosmos 1766 Rocket 4.3 20:02:50 10° NNE 20:06:43 31° E 20:10:35 10° SE
Cosmos 2034 Rocket 4.2 20:02:01 10° SSE 20:07:59 50° E 20:14:02 10° NNE
Cosmos 1464 Rocket 3.9 20:03:33 10° S 20:09:47 74° E 20:15:59 10° N
ATLAS 5 CENTAUR R/B 2.0 20:07:04 10° SW 20:11:44 75° WNW 20:16:44 10° NNE
TIMED 4.5 20:07:31 10° NNW 20:11:55 89° E 20:16:16 10° SSE
BREEZE-M TANK 3.0 20:03:24 10° NW 20:12:39 71° NNE 20:15:14 16° ESE
Helios 1B rocket 2.5 20:10:45 10° NNE 20:14:45 52° E 20:18:46 10° S
Meteor 1-29 3.4 20:11:57 10° NNE 20:15:15 38° E 20:18:31 10° S
Atlas Centaur 2 3.4 20:08:02 10° W 20:16:31 64° SSW 20:23:25 14° ESE
Cosmos 1076 Rocket 3.6 20:13:49 10° N 20:18:04 54° E 20:22:18 10° SSE
Cosmos-2242 3.2 20:14:46 10° SSE 20:18:56 48° E 20:23:10 10° NNE
Cosmos 1766 4.1 20:15:05 10° SSW 20:18:56 55° W 20:22:51 10° N
SeaSat 1 3.5 20:16:16 10° NE 20:20:07 23° ESE 20:23:56 10° SSE
H-II Stage 2 4.3 20:23:27 10° SSW 20:24:00 11° S 20:24:37 10° SSE
BREEZE-M DEB (TANK) 4.4 20:21:48 10° NW 20:25:59 84° SW 20:42:00 10° SE
SL-16 R/B 3.7 20:22:38 10° SW 20:27:53 38° WNW 20:33:10 10° N
FREGAT/IRIS 2.7 20:25:34 10° S 20:28:38 81° W 20:31:44 10° NNW
Cosmos 1452 Rocket 3.7 20:24:02 10° N 20:29:06 47° ENE 20:33:23 14° SE
SEDSat Delta rocket 4.0 20:22:47 10° W 20:29:27 90° SW 20:34:02 23° E
Cosmos 1842 Rocket 4.2 20:30:22 10° SSE 20:34:11 32° E 20:38:02 10° NNE
ATLAS CENTAUR R/B 2.8 20:31:59 10° NW 20:35:41 35° WSW 20:39:07 10° S
SL-8 R/B 3.9 20:33:29 10° WSW 20:38:14 69° NW 20:42:04 16° NE
Cosmos 1544 3.0 20:35:44 10° S 20:39:25 67° E 20:43:08 10° NNE
METEOR-M 4.1 20:34:12 10° SSE 20:39:32 88° E 20:44:55 10° NNW
Cosmos 1408 Rocket 3.4 20:36:10 10° N 20:40:32 89° WSW 20:44:49 10° S
Cosmos 468 4.5 20:35:27 10° SSW 20:40:42 87° WNW 20:45:59 10° NNE
Gbstr 26 Del rocket 3.1 20:39:22 10° SSW 20:43:30 59° SE 20:45:51 29° ENE
Cosmos 1953 2.7 20:40:34 10° SSW 20:44:30 63° W 20:48:27 10° N
H-2A R/B 3.9 20:50:10 29° NE 20:50:10 29° NE 20:52:37 10° N
Cosmos 1805 4.0 20:45:27 10° SSW 20:49:18 54° W 20:53:09 10° N
FENGYUN 3A 3.7 20:47:47 24° SE 20:50:50 53° ENE 20:56:04 10° N
Cosmos 1420 Rocket 4.4 20:46:13 10° N 20:51:13 41° ENE 20:52:00 38° E
Resurs 1-3 3.5 20:48:38 13° SSE 20:52:30 84° ENE 20:56:55 10° N
Resurs 01 Rocket 1.8 20:48:57 10° S 20:53:23 72° WSW 20:57:50 10° NNW
Abrixas 4.3 20:56:51 10° W 20:59:27 26° NW 21:00:02 24° NNW
ASTEX 1 3.2 20:56:01 10° N 21:00:55 73° E 21:05:46 10° S
Spot 2 Rocket 4.0 20:57:02 10° S 21:01:59 60° WSW 21:06:59 10° NNW
CENTAUR R/B 2.3 20:56:41 10° SSW 21:02:29 70° ESE 21:08:57 10° NE
Cosmos 1269 Rocket 4.3 20:57:55 10° SSW 21:03:10 70° WNW 21:08:26 10° N
Helios 1A 3.5 21:00:08 10° S 21:04:15 57° W 21:08:24 10° NNW
Cosmos 1048 Rocket 4.1 20:59:43 10° SSW 21:05:03 80° WNW 21:10:20 10° NNE
Delta 168 4.2 21:01:46 10° WSW 21:06:39 48° S 21:08:13 40° SE
Cosmos 1743 Rocket 3.4 21:04:30 10° N 21:08:57 87° E 21:09:33 66° SSE
Cosmos 1943 3.0 21:05:23 10° S 21:10:59 71° ESE 21:16:35 10° NNE
Cosmos 1470 4.3 21:13:51 26° N 21:13:51 26° N 21:15:39 10° N
Centaur D-1A AC-32 4.3 21:10:33 10° SW 21:12:18 13° S 21:12:24 13° S
Cosmos 2369 Rocket 3.4 21:10:53 10° N 21:14:17 27° NE 21:14:17 27° NE
Cosmos 1174 4.1 21:14:55 10° SSW 21:20:08 84° W 21:20:08 84° W
GPS 2-04 Rocket1 3.8 21:17:16 10° W 21:19:40 38° WNW 21:19:40 38° WNW
Nadezhda 4 Rocket 4.1 21:17:34 10° N 21:23:49 72° W 21:29:51 11° S
Cosmos 2142 Rocket 4.4 21:24:04 10° S 21:30:25 85° E 21:36:49 10° N
Cosmos 1092 Rocket 3.8 21:24:38 10° N 21:30:51 88° W 21:32:27 53° S
ISS -0.5 21:31:50 10° W 21:33:17 18° WNW 21:33:17 18° WNW
Cosmos 1634 Rocket 4.1 21:33:47 10° S 21:40:02 75° W 21:46:16 10° N
OAO 3 Rocket 4.1 21:37:09 10° WNW 21:40:37 45° NW 21:40:37 45° NW
ALOS 3.6 21:42:33 31° SW 21:43:44 36° W 21:48:02 10° NNW
BREEZE-M DEB (TANK) 4.3 21:38:44 10° NW 21:51:22 44° WSW 21:52:19 40° SW
SeaSat 1 3.8 21:53:08 10° N 21:57:37 36° WNW 22:02:05 10° SW
Atlas Centaur 2 4.0 21:58:46 10° W 22:05:48 31° SSW 22:06:05 30° SSW
